Flag for Japan Weather past 2 weeks in Sapporo, Japan

Now
34 °F

Chilly.


Feels Like: 34 °F
Forecast: 33 / 37 °F
Wind: 1 mph from East

Location: Sapporo

Current Time: Mar 2, 2015 at 12:55:38 AM

Latest Report: Mar 2, 2015 at 12:00 AM


Visibility: N/A

Pressure: 29.67 "Hg

Humidity: 93%

Dew point: 32 °F

Location of SapporoLocation

Historic Weather in Sapporo — Graph

°F

Sapporo temperature yesterday

Maximum temperature yesterday: 35 °F (at 11:00 AM)
Minimum temperature yesterday: 24 °F (at 5:00 AM)
Average temperature yesterday: 31 °F

Past Weeks' High & Low Weather Summary

 TemperatureHumidityPressure
High45 °F (Feb 23, 11:00 AM)93% (Feb 27, 5:00 AM)30.37 "Hg (Feb 27, 5:00 AM)
Low24 °F (Mar 1, 5:00 AM)34% (Feb 23, 1:00 PM)29.32 "Hg (Feb 27, 1:00 PM)
Average34 °F70%29.97 "Hg
* Reported Feb 14 11:00 PM — Mar 1 11:00 PM, Sapporo, Weather by CustomWeather, © 2015

Note: Actual official high and low records may vary slightly from our data, if they occured in-between our weather recording intervals... More about our weather records

Advertising

Sapporo weather history for previous 24 hours

 ConditionsComfort  
Time TempWeatherWind HumidityBarometerVisibility
11:00 PM
Sun, Mar 1
34 °FChilly.5 mph91%29.70 "HgN/A
10:00 PM35 °FChilly.6 mph87%29.74 "HgN/A
9:00 PM34 °FLight snow. Overcast.6 mph90%29.77 "Hg2 mi
8:00 PM34 °FChilly.9 mph90%29.79 "HgN/A
7:00 PM34 °FChilly.8 mph91%29.82 "HgN/A
6:00 PM34 °FLight rain. Overcast.10 mph91%29.85 "Hg2 mi
5:00 PM34 °FChilly.13 mph91%29.87 "HgN/A
4:00 PM34 °FChilly.14 mph90%29.88 "HgN/A
3:00 PM35 °FLight snow. Overcast.16 mph84%29.92 "Hg1 mi
2:00 PM35 °FChilly.16 mph76%29.94 "HgN/A
1:00 PM35 °FChilly.21 mph73%29.97 "HgN/A
11:00 AM35 °FChilly.9 mph68%30.07 "HgN/A
10:00 AM33 °FChilly.10 mph73%30.11 "HgN/A
9:00 AM32 °FOvercast.12 mph74%30.15 "Hg9 mi
8:00 AM29 °FChilly.10 mph75%30.17 "HgN/A
7:00 AM27 °FChilly.8 mph71%30.17 "HgN/A
6:00 AM25 °FOvercast.10 mph67%30.19 "Hg12 mi
5:00 AM24 °FCold.6 mph68%30.20 "HgN/A
4:00 AM24 °FCold.6 mph68%30.20 "HgN/A
3:00 AM25 °FPassing clouds.5 mph70%30.22 "Hg12 mi
2:00 AM26 °FChilly.5 mph70%30.24 "HgN/A
1:00 AM27 °FChilly.3 mph67%30.26 "HgN/A
12:00 AM28 °FChilly.2 mph67%30.26 "HgN/A
Weather by CustomWeather, © 2015

See weather overviewHow to use our weather pages